Погода в Любани

Россия / Санкт-Петербург и Ленинградская область     59˚21′04″N   31˚14′36″E
темп.,
°C
ветер,
м/с
пор.,
м/с
влажн.,
%
обл.,
%
осадки,
мм/ч
давл.,
гПа
погр.,
м
18 января, пн
пн1800:00−9˚зюз259698 0.3 1016166
03:00−9˚зюз249699 0.8 1016115
06:00−9˚зюз229694 0.4 101556
09:00−9˚зюз129791 0.6 101624
12:00−8˚зюз129682 0.1 101766
15:00−8˚юз129787 0.1 101626
18:00−9˚юз129784 0.1 101621
21:00−11˚ююз229776 0.1 101621
19 января, вт
вт1900:00−10˚ююз229787 0.1 101644
03:00−11˚юз129780 0.1 101721
06:00−12˚юз229745 0.0 101521
09:00−13˚ююз229636 0.0 101624
12:00−11˚юз249321 0.0 1016161
15:00−10˚ююз249317 0.0 1015195
18:00−13˚ююз23969 0.0 101537
21:00−14˚ююз23975 0.0 101652
20 января, ср
ср2000:00−14˚ююз239710 0.0 101643
03:00−15˚ююз239614 0.0 101661
06:00−15˚ююз23940 0.0 101646
09:00−15˚ю23950 0.0 101682
12:00−12˚ю36910 0.0 1016230
15:00−11˚ююв38911 0.0 1015278
18:00−13˚ююв4109448 0.0 1013309
21:00−12˚ююв4119174 0.0 1011400
21 января, чт
чт2100:00−11˚ююв51387100 0.0 1008451
03:00−9˚ююв61493100 1.1 1005674
06:00−8˚ю51393100 2.0 1001695
09:00−6˚ю51295100 3.8 999559
12:00−2˚ююз61394100 1.4 997462
15:00+2˚юз51398100 2.3 996506
18:00+2˚зюз41398100 1.9 996513
21:00+2˚зюз41297100 2.5 998412
22 января, пт
пт2200:00+2˚зюз3999100 0.8 1000273
03:00−2˚с2298100 1.2 100283
06:00−5˚св2496100 0.2 1003172
09:00−6˚всв2594100 0.3 1004201
12:00−5˚в3495100 0.0 1006151
15:00−3˚в2596100 0.0 1006163
18:00−1˚юв3797100 0.0 1006295
21:00юв3897100 0.1 1005329